sat.trackr.live / text

‹ back to catalog

STARLINK-36666

NORAD 69193 · 2026-114M

PAYLOAD ACTIVE UNKNOWN

§ Identity

Operator
Country
US
Launch date
2026-05-25
Launch site
AFETR
Launch vehicle
Mass (kg)
RCS (m²)

Purposes: comms

External: N2YO · Heavens-Above · Gunter

§ Orbital elements

Epoch: 2026-09-20T00:50:47.245920Z

Period
93.85 min
Inclination
53.1572°
Eccentricity
0.0001520
Mean motion
15.34406529 rev/d
Perigee alt
461.6 km
Apogee alt
463.7 km
Semi-major
6,840.8 km
B*
4.6259e-4
RAAN
115.9797°
Arg perigee
86.1570°
Mean anomaly
273.9607°
Rev number
1,937

§ Raw data

STARLINK-366661 69193U 26114M   26263.03526905  .00015288  00000+0  46259-3 0  99932 69193  53.1572 115.9797 0001520  86.1570 273.9607 15.34406529 19370

JSON: /api/v1/satellites/69193 · /tle

For live sub-satellite position, see the globe view (requires WebGL).

§ Visibility from observer

Set your observer location to see the next 7 days of passes ≥ 10°. The values pass through the URL so the page stays shareable.

No JS? Fill the form by hand. The geolocation button needs JavaScript.